DAL220 KSLC-LFPG

Flight info

Callsign DAL220
Flight time N/A
Altitude 33000
Route RUGGD3 HOLTR DCT MLS DCT MOT DCT 50N098W/N0485F350 54N090W 58N080W 60N074W DCT FEDDY/M083F350 DCT EMBOK DCT 64N050W/M082F370 64N040W 6230N03000W 5930N02000W DCT SUNOT/N0474F370 DCT KESIX DCT REVNU/N0471F390 DCT CON DCT LIPGO DCT NUCHU L18 MID/N0484F290 Y803 SFD UM605 BIBAX
Aircraft A339/H-SADE1E2E3GHIJ3J5M1P2RWXY/LB2D1

Departure

Time N/A
Airport Salt Lake City International Airport (KSLC)

Arrival

Time 2026-05-09 07:26
Airport Charles de Gaulle International Airport (LFPG)
Time Latitude Longitude Altitude Speed Heading
2026-05-09 06:40 51.86436 -2.57335 33109 ft 449 kts 128°
2026-05-09 06:41 51.82863 -2.49105 33110 ft 449 kts 128°
2026-05-09 06:41 51.79281 -2.40881 33114 ft 449 kts 128°
2026-05-09 06:42 51.75680 -2.32643 33115 ft 450 kts 128°
2026-05-09 06:42 51.72095 -2.24466 33112 ft 450 kts 128°
2026-05-09 06:43 51.68481 -2.16248 33110 ft 451 kts 128°
2026-05-09 06:43 51.64867 -2.08054 33108 ft 451 kts 128°
2026-05-09 06:44 51.61223 -1.99817 33110 ft 451 kts 128°
2026-05-09 06:44 51.57584 -1.91618 33115 ft 452 kts 128°
2026-05-09 06:45 51.53943 -1.83437 33116 ft 452 kts 128°
2026-05-09 06:45 51.50312 -1.75314 33117 ft 452 kts 128°
2026-05-09 06:46 51.46872 -1.66820 33115 ft 454 kts 123°
2026-05-09 06:46 51.44001 -1.57908 33112 ft 455 kts 118°
2026-05-09 06:47 51.41316 -1.48737 33109 ft 454 kts 118°
2026-05-09 06:47 51.38646 -1.39649 33108 ft 453 kts 118°
2026-05-09 06:48 51.35945 -1.30509 33107 ft 452 kts 118°
2026-05-09 06:48 51.33067 -1.21672 33106 ft 449 kts 123°
2026-05-09 06:49 51.29613 -1.13441 33109 ft 446 kts 129°
2026-05-09 06:49 51.25885 -1.05586 33113 ft 445 kts 130°
2026-05-09 06:50 51.22152 -0.97716 33118 ft 445 kts 129°
2026-05-09 06:50 51.18456 -0.89916 33120 ft 444 kts 129°
2026-05-09 06:51 51.14738 -0.82089 33122 ft 443 kts 129°
2026-05-09 06:51 51.11039 -0.74325 33123 ft 443 kts 129°
2026-05-09 06:52 51.07323 -0.66554 33122 ft 442 kts 129°
2026-05-09 06:52 51.03834 -0.58523 33120 ft 444 kts 124°
2026-05-09 06:53 51.00596 -0.50185 33119 ft 443 kts 124°
2026-05-09 06:53 50.97359 -0.41883 33117 ft 443 kts 124°
2026-05-09 06:54 50.94129 -0.33614 33116 ft 443 kts 124°
2026-05-09 06:54 50.90893 -0.25354 33114 ft 442 kts 124°
2026-05-09 06:55 50.87656 -0.17116 33115 ft 442 kts 124°
2026-05-09 06:55 50.84434 -0.08940 33115 ft 441 kts 124°
2026-05-09 06:56 50.81172 -0.00698 33116 ft 441 kts 125°
2026-05-09 06:56 50.77643 0.07121 33109 ft 440 kts 130°
2026-05-09 06:57 50.73587 0.14408 33101 ft 445 kts 136°
2026-05-09 06:57 50.69073 0.21022 33105 ft 449 kts 141°
2026-05-09 06:58 50.64245 0.27232 33111 ft 450 kts 141°
2026-05-09 06:58 50.59392 0.33486 33112 ft 449 kts 142°
2026-05-09 06:59 50.54567 0.39640 33112 ft 449 kts 142°
2026-05-09 06:59 50.49743 0.45752 33110 ft 448 kts 142°
2026-05-09 07:00 50.44908 0.51864 33108 ft 448 kts 142°
2026-05-09 07:00 50.40068 0.57967 33106 ft 448 kts 142°
2026-05-09 07:01 50.35216 0.64069 33020 ft 451 kts 142°
2026-05-09 07:01 50.32760 0.67151 32580 ft 447 kts 142°
2026-05-09 07:01 50.30380 0.70136 32063 ft 430 kts 142°
2026-05-09 07:02 50.28128 0.72959 31624 ft 416 kts 142°
2026-05-09 07:02 50.25888 0.75762 31178 ft 413 kts 143°
2026-05-09 07:02 50.23637 0.78572 30698 ft 412 kts 143°
2026-05-09 07:02 50.21405 0.81309 30156 ft 410 kts 144°
2026-05-09 07:03 50.19086 0.83886 29610 ft 409 kts 147°
2026-05-09 07:03 50.16725 0.86232 29042 ft 408 kts 150°
2026-05-09 07:03 50.14243 0.88425 28463 ft 407 kts 153°
2026-05-09 07:03 50.11776 0.90457 27876 ft 407 kts 153°
2026-05-09 07:04 50.09267 0.92538 27276 ft 406 kts 153°
2026-05-09 07:04 50.06807 0.94580 26689 ft 406 kts 153°
2026-05-09 07:04 50.04311 0.96647 26093 ft 406 kts 153°
2026-05-09 07:04 50.01831 0.98698 25495 ft 405 kts 153°
2026-05-09 07:05 49.99372 1.00728 24895 ft 405 kts 153°
2026-05-09 07:05 49.96904 1.02763 24294 ft 404 kts 153°
2026-05-09 07:05 49.94404 1.04822 23686 ft 404 kts 153°
2026-05-09 07:05 49.91948 1.06843 23106 ft 403 kts 153°
2026-05-09 07:06 49.89468 1.08881 22523 ft 402 kts 153°
2026-05-09 07:06 49.87019 1.10890 21948 ft 402 kts 153°
2026-05-09 07:06 49.84568 1.12899 21373 ft 401 kts 152°
2026-05-09 07:06 49.82088 1.14930 20806 ft 400 kts 153°
2026-05-09 07:07 49.79654 1.16922 20249 ft 400 kts 153°
2026-05-09 07:07 49.77219 1.18912 19691 ft 399 kts 153°
2026-05-09 07:07 49.74770 1.20911 19128 ft 398 kts 153°
2026-05-09 07:07 49.72329 1.22901 18570 ft 397 kts 153°
2026-05-09 07:08 49.69919 1.24862 18019 ft 396 kts 153°
2026-05-09 07:08 49.67479 1.26846 17460 ft 395 kts 153°
2026-05-09 07:08 49.65046 1.28822 16901 ft 393 kts 153°
2026-05-09 07:08 49.62638 1.30774 16341 ft 392 kts 153°
2026-05-09 07:09 49.60249 1.32710 15783 ft 391 kts 153°
2026-05-09 07:09 49.57837 1.34662 15219 ft 390 kts 153°
2026-05-09 07:09 49.55464 1.36580 14663 ft 388 kts 153°
2026-05-09 07:09 49.53094 1.38494 14103 ft 387 kts 153°
2026-05-09 07:10 49.50699 1.40425 13535 ft 386 kts 153°
2026-05-09 07:10 49.48344 1.42323 12943 ft 382 kts 153°
2026-05-09 07:10 49.46068 1.44158 12351 ft 363 kts 153°
2026-05-09 07:10 49.43891 1.45912 12332 ft 347 kts 153°
2026-05-09 07:11 49.41792 1.47601 12313 ft 332 kts 153°
2026-05-09 07:11 49.39781 1.49217 12239 ft 320 kts 153°
2026-05-09 07:11 49.37835 1.50778 12055 ft 313 kts 153°
2026-05-09 07:11 49.35925 1.52307 11859 ft 307 kts 153°
2026-05-09 07:12 49.34073 1.53789 11666 ft 302 kts 153°
2026-05-09 07:12 49.32225 1.55269 11470 ft 296 kts 153°
2026-05-09 07:12 49.30602 1.57172 11243 ft 295 kts 128°
2026-05-09 07:12 49.29785 1.59960 10964 ft 290 kts 99°
2026-05-09 07:13 49.29640 1.63021 10742 ft 285 kts 94°
2026-05-09 07:13 49.29550 1.66015 10493 ft 283 kts 95°
2026-05-09 07:13 49.29445 1.69003 10169 ft 280 kts 95°
2026-05-09 07:13 49.29325 1.71941 9835 ft 276 kts 96°
2026-05-09 07:14 49.28843 1.74734 9480 ft 269 kts 122°
2026-05-09 07:14 49.27599 1.76783 9146 ft 266 kts 148°
2026-05-09 07:14 49.25928 1.78012 8812 ft 267 kts 157°
2026-05-09 07:14 49.24223 1.79119 8439 ft 266 kts 157°
2026-05-09 07:15 49.22537 1.80225 8088 ft 263 kts 156°
2026-05-09 07:15 49.20878 1.81328 7738 ft 260 kts 156°
2026-05-09 07:15 49.19230 1.82432 7387 ft 257 kts 155°
2026-05-09 07:15 49.17609 1.83522 7041 ft 255 kts 155°
2026-05-09 07:16 49.15984 1.84608 6691 ft 252 kts 156°
2026-05-09 07:16 49.14378 1.85664 6341 ft 249 kts 156°
2026-05-09 07:16 49.12804 1.86723 5989 ft 247 kts 150°
2026-05-09 07:16 49.11552 1.88411 5630 ft 243 kts 127°
2026-05-09 07:17 49.10580 1.90536 5276 ft 242 kts 123°
2026-05-09 07:17 49.09691 1.92683 5013 ft 240 kts 122°
2026-05-09 07:17 49.08812 1.94842 4760 ft 240 kts 122°
2026-05-09 07:17 49.07935 1.96996 4509 ft 240 kts 122°
2026-05-09 07:18 49.07048 1.99174 4255 ft 240 kts 122°
2026-05-09 07:18 49.06176 2.01301 4032 ft 238 kts 122°
2026-05-09 07:18 49.05308 2.03405 3986 ft 230 kts 122°
2026-05-09 07:18 49.04453 2.05477 3990 ft 232 kts 122°
2026-05-09 07:19 49.03594 2.07564 3989 ft 232 kts 122°
2026-05-09 07:19 49.02740 2.09642 3989 ft 232 kts 122°
2026-05-09 07:19 49.01881 2.11729 3989 ft 233 kts 122°
2026-05-09 07:19 49.01083 2.13855 3984 ft 233 kts 112°
2026-05-09 07:20 49.00647 2.16198 3981 ft 227 kts 98°
2026-05-09 07:20 49.00582 2.18525 3978 ft 216 kts 87°
2026-05-09 07:20 49.00734 2.20764 3978 ft 205 kts 84°
2026-05-09 07:20 49.00903 2.22850 3975 ft 194 kts 84°
2026-05-09 07:21 49.01041 2.24812 3909 ft 180 kts 85°
2026-05-09 07:21 49.01154 2.26652 3689 ft 172 kts 86°
2026-05-09 07:21 49.01251 2.28434 3469 ft 164 kts 87°
2026-05-09 07:21 49.01339 2.30132 3243 ft 157 kts 87°
2026-05-09 07:22 49.01413 2.31742 3036 ft 150 kts 88°
2026-05-09 07:22 49.01485 2.33286 2849 ft 146 kts 87°
2026-05-09 07:22 49.01562 2.34846 2670 ft 146 kts 88°
2026-05-09 07:22 49.01637 2.36376 2482 ft 145 kts 88°
2026-05-09 07:23 49.01709 2.37870 2284 ft 140 kts 88°
2026-05-09 07:23 49.01782 2.39345 2101 ft 139 kts 87°
2026-05-09 07:23 49.01858 2.40810 1915 ft 139 kts 86°
2026-05-09 07:23 49.01936 2.42294 1724 ft 139 kts 86°
2026-05-09 07:24 49.02013 2.43752 1534 ft 139 kts 86°
2026-05-09 07:24 49.02090 2.45218 1343 ft 139 kts 86°
2026-05-09 07:24 49.02167 2.46680 1155 ft 138 kts 86°
2026-05-09 07:24 49.02242 2.48130 969 ft 139 kts 85°
2026-05-09 07:25 49.02320 2.49605 786 ft 139 kts 85°
2026-05-09 07:25 49.02397 2.51065 602 ft 140 kts 84°
2026-05-09 07:25 49.02470 2.52544 412 ft 139 kts 83°
2026-05-09 07:25 49.02549 2.53892 389 ft 109 kts 85°
2026-05-09 07:26 49.02598 2.54855 386 ft 76 kts 85°
2026-05-09 07:26 49.02631 2.55468 391 ft 39 kts 84°
2026-05-09 07:26 49.02631 2.55750 392 ft 21 kts 94°
2026-05-09 07:26 49.02559 2.55923 393 ft 19 kts 142°
2026-05-09 07:27 49.02445 2.55951 392 ft 16 kts 174°
2026-05-09 07:27 49.02328 2.55969 391 ft 17 kts 174°
2026-05-09 07:27 49.02194 2.55986 386 ft 20 kts 175°
2026-05-09 07:27 49.02064 2.56066 383 ft 19 kts 147°
2026-05-09 07:28 49.01937 2.56124 380 ft 19 kts 132°
2026-05-09 07:28 49.01925 2.56313 380 ft 18 kts 84°
2026-05-09 07:28 49.01936 2.56508 380 ft 18 kts 84°
2026-05-09 07:28 49.01946 2.56704 380 ft 18 kts 85°
2026-05-09 07:29 49.01958 2.56912 376 ft 20 kts 84°
2026-05-09 07:29 49.01969 2.57139 374 ft 21 kts 85°
2026-05-09 07:29 49.01982 2.57366 371 ft 20 kts 85°
2026-05-09 07:29 49.01992 2.57579 371 ft 19 kts 85°
2026-05-09 07:30 49.01994 2.57772 372 ft 17 kts 101°
2026-05-09 07:30 49.01925 2.57932 369 ft 19 kts 144°
2026-05-09 07:30 49.01789 2.57995 364 ft 21 kts 173°
2026-05-09 07:30 49.01635 2.58014 360 ft 23 kts 175°
2026-05-09 07:31 49.01468 2.58035 355 ft 23 kts 177°
2026-05-09 07:31 49.01313 2.58051 354 ft 21 kts 175°
2026-05-09 07:31 49.01165 2.58073 354 ft 21 kts 174°
2026-05-09 07:31 49.01018 2.58095 353 ft 20 kts 173°
2026-05-09 07:32 49.00884 2.58112 353 ft 16 kts 173°
2026-05-09 07:32 49.00826 2.58228 351 ft 16 kts 83°
2026-05-09 07:32 49.00835 2.58417 347 ft 19 kts 85°
2026-05-09 07:32 49.00829 2.58625 343 ft 20 kts 117°
2026-05-09 07:33 49.00707 2.58698 342 ft 19 kts 175°
2026-05-09 07:33 49.00437 2.58734 341 ft 15 kts 174°
2026-05-09 07:33 49.00372 2.58711 340 ft 8 kts 238°
2026-05-09 07:34 49.00369 2.58661 340 ft 4 kts 267°
2026-05-09 07:34 49.00366 2.58615 341 ft 2 kts 264°
2026-05-09 07:34 49.00366 2.58607 341 ft 0 kts 265°
2026-05-09 07:34 49.00366 2.58606 341 ft 0 kts 265°